Time,TemperatureF,DewpointF,PressureIn,WindDirection,WindDirectionDegrees,WindSpeedMPH,WindSpeedGustMPH,Humidity,HourlyPrecipIn,Conditions,Clouds,dailyrainin,SoftwareType,DateUTC
2013-03-14 00:02:00,25.0,19.0,30.25,West,259,0.0,3.0,77,0.00,,,0.00,,2013-03-14 05:02:00,
2013-03-14 00:12:00,25.0,19.0,30.25,West,259,0.0,3.0,77,0.00,,,0.00,,2013-03-14 05:12:00,
2013-03-14 00:22:00,25.0,19.0,30.26,WNW,301,1.0,4.0,78,0.00,,,0.00,,2013-03-14 05:22:00,
2013-03-14 00:33:00,25.0,19.0,30.25,WNW,301,0.0,2.0,78,0.00,,,0.00,,2013-03-14 05:33:00,
2013-03-14 00:42:00,25.0,19.0,30.25,WNW,301,0.0,2.0,78,0.00,,,0.00,,2013-03-14 05:42:00,
2013-03-14 00:53:00,25.0,19.0,30.25,WNW,295,1.0,3.0,79,0.00,,,0.00,,2013-03-14 05:53:00,
2013-03-14 01:02:00,24.0,18.0,30.25,WNW,295,0.0,3.0,79,0.00,,,0.00,,2013-03-14 06:02:00,
2013-03-14 01:12:00,24.0,18.0,30.25,WNW,295,0.0,3.0,79,0.00,,,0.00,,2013-03-14 06:12:00,
2013-03-14 01:22:00,24.0,18.0,30.25,WNW,295,0.0,2.0,78,0.00,,,0.00,,2013-03-14 06:22:00,
2013-03-14 01:32:00,24.0,18.0,30.25,WNW,294,0.0,3.0,79,0.00,,,0.00,,2013-03-14 06:32:00,
2013-03-14 01:42:00,24.0,18.0,30.25,WNW,294,0.0,3.0,79,0.00,,,0.00,,2013-03-14 06:42:00,
2013-03-14 01:52:00,24.0,18.0,30.24,WNW,294,0.0,0.0,79,0.00,,,0.00,,2013-03-14 06:52:00,
2013-03-14 02:02:00,23.0,18.0,30.24,WNW,294,0.0,0.0,80,0.00,,,0.00,,2013-03-14 07:02:00,
2013-03-14 02:12:00,23.0,18.0,30.24,WNW,294,0.0,0.0,80,0.00,,,0.00,,2013-03-14 07:12:00,
2013-03-14 02:22:00,23.0,18.0,30.24,WNW,294,0.0,0.0,80,0.00,,,0.00,,2013-03-14 07:22:00,
2013-03-14 02:32:00,23.0,18.0,30.24,WNW,294,0.0,2.0,81,0.00,,,0.00,,2013-03-14 07:32:00,
2013-03-14 02:42:00,23.0,18.0,30.24,WNW,294,0.0,2.0,81,0.00,,,0.00,,2013-03-14 07:42:00,
2013-03-14 02:52:00,23.0,19.0,30.24,WNW,294,0.0,2.0,83,0.00,,,0.00,,2013-03-14 07:52:00,
2013-03-14 03:02:00,23.0,19.0,30.24,WNW,294,0.0,0.0,83,0.00,,,0.00,,2013-03-14 08:02:00,
2013-03-14 03:12:00,23.0,19.0,30.24,WNW,294,0.0,0.0,83,0.00,,,0.00,,2013-03-14 08:12:00,
2013-03-14 03:22:00,23.0,18.0,30.24,WNW,294,0.0,0.0,82,0.00,,,0.00,,2013-03-14 08:22:00,
2013-03-14 03:32:00,23.0,18.0,30.23,WNW,294,0.0,0.0,82,0.00,,,0.00,,2013-03-14 08:32:00,
2013-03-14 03:41:00,23.0,18.0,30.23,WNW,294,0.0,0.0,82,0.00,,,0.00,,2013-03-14 08:41:00,
2013-03-14 03:52:00,23.0,18.0,30.22,WNW,294,0.0,0.0,82,0.00,,,0.00,,2013-03-14 08:52:00,
2013-03-14 04:01:00,23.0,18.0,30.22,WNW,294,0.0,0.0,82,0.00,,,0.00,,2013-03-14 09:01:00,
2013-03-14 04:12:00,23.0,18.0,30.22,WNW,294,0.0,0.0,82,0.00,,,0.00,,2013-03-14 09:12:00,
2013-03-14 04:22:00,23.0,19.0,30.22,WNW,294,0.0,0.0,83,0.00,,,0.00,,2013-03-14 09:22:00,
2013-03-14 04:32:00,23.0,19.0,30.21,WNW,294,0.0,0.0,85,0.00,,,0.00,,2013-03-14 09:32:00,
2013-03-14 04:42:00,23.0,19.0,30.21,WNW,294,0.0,0.0,85,0.00,,,0.00,,2013-03-14 09:42:00,
2013-03-14 04:52:00,23.0,19.0,30.21,WNW,294,0.0,0.0,86,0.00,,,0.00,,2013-03-14 09:52:00,
2013-03-14 05:02:00,23.0,19.0,30.20,WNW,294,0.0,0.0,86,0.00,,,0.00,,2013-03-14 10:02:00,
2013-03-14 05:12:00,23.0,19.0,30.20,WNW,294,0.0,0.0,86,0.00,,,0.00,,2013-03-14 10:12:00,
2013-03-14 05:22:00,23.0,19.0,30.20,WNW,294,0.0,0.0,86,0.00,,,0.00,,2013-03-14 10:22:00,
2013-03-14 05:32:00,23.0,20.0,30.19,WNW,294,0.0,0.0,87,0.00,,,0.00,,2013-03-14 10:32:00,
2013-03-14 05:42:00,23.0,20.0,30.19,WNW,294,0.0,0.0,87,0.00,,,0.00,,2013-03-14 10:42:00,
2013-03-14 05:52:00,23.0,20.0,30.19,WNW,294,0.0,0.0,88,0.00,,,0.00,,2013-03-14 10:52:00,
2013-03-14 06:02:00,23.0,20.0,30.20,WNW,294,0.0,0.0,88,0.00,,,0.00,,2013-03-14 11:02:00,
2013-03-14 06:12:00,23.0,20.0,30.20,WNW,294,0.0,0.0,88,0.00,,,0.00,,2013-03-14 11:12:00,
2013-03-14 06:22:00,23.0,20.0,30.21,WNW,294,0.0,0.0,88,0.00,,,0.00,,2013-03-14 11:22:00,
2013-03-14 06:33:00,23.0,20.0,30.22,WNW,294,0.0,0.0,88,0.00,,,0.00,,2013-03-14 11:33:00,
2013-03-14 06:42:00,23.0,20.0,30.22,WNW,294,0.0,0.0,88,0.00,,,0.00,,2013-03-14 11:42:00,
2013-03-14 06:52:00,23.0,20.0,30.22,WNW,294,0.0,0.0,89,0.00,,,0.00,,2013-03-14 11:52:00,
2013-03-14 07:02:00,23.0,20.0,30.21,WNW,294,0.0,0.0,89,0.00,,,0.00,,2013-03-14 12:02:00,
2013-03-14 07:12:00,23.0,20.0,30.21,WNW,294,0.0,0.0,89,0.00,,,0.00,,2013-03-14 12:12:00,
2013-03-14 07:22:00,24.0,21.0,30.21,WNW,294,0.0,0.0,89,0.00,,,0.00,,2013-03-14 12:22:00,
2013-03-14 07:33:00,24.0,22.0,30.21,WNW,294,0.0,0.0,90,0.00,,,0.00,,2013-03-14 12:33:00,
2013-03-14 07:42:00,24.0,22.0,30.21,WNW,294,0.0,0.0,90,0.00,,,0.00,,2013-03-14 12:42:00,
2013-03-14 07:52:00,25.0,23.0,30.21,WNW,294,0.0,2.0,91,0.00,,,0.00,,2013-03-14 12:52:00,
2013-03-14 08:02:00,25.0,22.0,30.21,SSE,161,1.0,5.0,90,0.00,,,0.00,,2013-03-14 13:02:00,
2013-03-14 08:12:00,25.0,22.0,30.21,SSE,161,1.0,5.0,90,0.00,,,0.00,,2013-03-14 13:12:00,
2013-03-14 08:22:00,26.0,23.0,30.21,South,186,4.0,5.0,89,0.00,,,0.00,,2013-03-14 13:22:00,
2013-03-14 08:32:00,27.0,24.0,30.20,SSE,157,5.0,5.0,88,0.00,,,0.00,,2013-03-14 13:32:00,
2013-03-14 08:42:00,27.0,24.0,30.20,SSE,157,5.0,5.0,88,0.00,,,0.00,,2013-03-14 13:42:00,
2013-03-14 08:52:00,27.0,24.0,30.20,SE,146,6.0,9.0,87,0.00,,,0.00,,2013-03-14 13:52:00,
2013-03-14 09:02:00,28.0,24.0,30.19,SE,146,8.0,11.0,85,0.00,,,0.00,,2013-03-14 14:02:00,
2013-03-14 09:12:00,28.0,24.0,30.19,SE,146,8.0,11.0,85,0.00,,,0.00,,2013-03-14 14:12:00,
2013-03-14 09:22:00,28.0,23.0,30.20,SSE,148,6.0,9.0,82,0.00,,,0.00,,2013-03-14 14:22:00,
2013-03-14 09:32:00,28.0,23.0,30.19,SSE,154,7.0,8.0,82,0.00,,,0.00,,2013-03-14 14:32:00,
2013-03-14 09:42:00,28.0,23.0,30.19,SSE,154,7.0,8.0,82,0.00,,,0.00,,2013-03-14 14:42:00,
2013-03-14 09:53:00,29.0,24.0,30.19,SSW,195,6.0,8.0,82,0.00,,,0.00,,2013-03-14 14:53:00,
2013-03-14 10:02:00,29.0,24.0,30.19,SSE,147,5.0,9.0,81,0.00,,,0.00,,2013-03-14 15:02:00,
2013-03-14 10:12:00,29.0,24.0,30.19,SSE,147,5.0,9.0,81,0.00,,,0.00,,2013-03-14 15:12:00,
2013-03-14 10:22:00,30.0,24.0,30.19,SSE,148,6.0,10.0,79,0.00,,,0.00,,2013-03-14 15:22:00,
2013-03-14 10:32:00,31.0,25.0,30.19,SSE,152,4.0,10.0,77,0.00,,,0.00,,2013-03-14 15:32:00,
2013-03-14 10:42:00,31.0,25.0,30.19,SSE,152,4.0,10.0,77,0.00,,,0.00,,2013-03-14 15:42:00,
2013-03-14 10:52:00,31.0,25.0,30.18,SSE,150,8.0,11.0,78,0.00,,,0.00,,2013-03-14 15:52:00,
2013-03-14 11:02:00,31.0,25.0,30.18,SE,138,7.0,10.0,77,0.00,,,0.00,,2013-03-14 16:02:00,
2013-03-14 11:12:00,31.0,25.0,30.18,SE,138,7.0,10.0,77,0.00,,,0.00,,2013-03-14 16:12:00,
2013-03-14 11:22:00,31.0,25.0,30.17,SSE,153,7.0,11.0,77,0.00,,,0.00,,2013-03-14 16:22:00,
2013-03-14 11:32:00,32.0,26.0,30.16,SE,127,5.0,13.0,77,0.00,,,0.00,,2013-03-14 16:32:00,
2013-03-14 11:42:00,32.0,26.0,30.16,SE,127,5.0,13.0,77,0.00,,,0.00,,2013-03-14 16:42:00,
2013-03-14 11:52:00,32.0,26.0,30.16,SE,145,13.0,13.0,78,0.00,,,0.00,,2013-03-14 16:52:00,
2013-03-14 12:02:00,32.0,26.0,30.16,SE,145,13.0,13.0,78,0.00,,,0.00,,2013-03-14 17:02:00,
2013-03-14 12:12:00,32.0,26.0,30.16,SE,145,13.0,13.0,78,0.00,,,0.00,,2013-03-14 17:12:00,
2013-03-14 12:23:00,31.0,28.0,30.14,SSE,149,8.0,14.0,88,0.00,,,0.00,,2013-03-14 17:23:00,
2013-03-14 12:32:00,31.0,28.0,30.13,SE,146,7.0,15.0,90,0.00,,,0.00,,2013-03-14 17:32:00,
2013-03-14 12:42:00,31.0,28.0,30.13,SE,146,7.0,15.0,90,0.00,,,0.00,,2013-03-14 17:42:00,
2013-03-14 12:52:00,31.0,29.0,30.13,SE,146,10.0,14.0,93,0.00,,,0.00,,2013-03-14 17:52:00,
2013-03-14 13:02:00,32.0,30.0,30.12,SE,128,9.0,14.0,93,0.00,,,0.00,,2013-03-14 18:02:00,
2013-03-14 13:12:00,32.0,30.0,30.12,SE,128,9.0,14.0,93,0.00,,,0.00,,2013-03-14 18:12:00,
2013-03-14 13:22:00,32.0,30.0,30.12,SE,143,9.0,12.0,93,0.00,,,0.00,,2013-03-14 18:22:00,
2013-03-14 13:32:00,33.0,31.0,30.13,SE,136,11.0,13.0,91,0.00,,,0.00,,2013-03-14 18:32:00,
2013-03-14 13:43:00,33.0,31.0,30.13,SE,136,11.0,13.0,91,0.00,,,0.00,,2013-03-14 18:43:00,
2013-03-14 13:52:00,33.0,31.0,30.12,SE,130,8.0,11.0,91,0.00,,,0.00,,2013-03-14 18:52:00,
2013-03-14 14:02:00,33.0,31.0,30.11,SE,131,4.0,9.0,91,0.00,,,0.00,,2013-03-14 19:02:00,
2013-03-14 14:12:00,33.0,31.0,30.11,SE,131,4.0,9.0,91,0.00,,,0.00,,2013-03-14 19:12:00,
2013-03-14 14:22:00,33.0,31.0,30.11,East,80,3.0,9.0,91,0.00,,,0.00,,2013-03-14 19:22:00,
2013-03-14 14:32:00,33.0,31.0,30.10,SE,134,4.0,12.0,91,0.00,,,0.00,,2013-03-14 19:32:00,
2013-03-14 14:42:00,33.0,31.0,30.10,SE,134,4.0,12.0,91,0.00,,,0.00,,2013-03-14 19:42:00,
2013-03-14 14:52:00,33.0,31.0,30.09,SE,130,6.0,12.0,91,0.00,,,0.00,,2013-03-14 19:52:00,
2013-03-14 15:02:00,33.0,31.0,30.09,ESE,123,6.0,13.0,92,0.00,,,0.00,,2013-03-14 20:02:00,
2013-03-14 15:11:00,33.0,31.0,30.09,ESE,123,6.0,13.0,92,0.00,,,0.00,,2013-03-14 20:11:00,
2013-03-14 15:22:00,34.0,32.0,30.08,SE,136,11.0,13.0,92,0.00,,,0.00,,2013-03-14 20:22:00,
2013-03-14 15:32:00,34.0,32.0,30.07,SE,146,10.0,15.0,91,0.00,,,0.00,,2013-03-14 20:32:00,
2013-03-14 15:42:00,34.0,32.0,30.07,SE,146,10.0,15.0,91,0.00,,,0.00,,2013-03-14 20:42:00,
2013-03-14 15:52:00,35.0,33.0,30.07,SE,134,9.0,15.0,91,0.00,,,0.00,,2013-03-14 20:52:00,
2013-03-14 16:02:00,35.0,32.0,30.06,SE,126,8.0,17.0,90,0.00,,,0.00,,2013-03-14 21:02:00,
2013-03-14 16:12:00,35.0,32.0,30.06,SE,126,8.0,17.0,90,0.00,,,0.00,,2013-03-14 21:12:00,
2013-03-14 16:22:00,36.0,33.0,30.05,SE,130,8.0,18.0,89,0.00,,,0.00,,2013-03-14 21:22:00,
2013-03-14 16:32:00,36.0,33.0,30.05,SE,130,12.0,18.0,88,0.00,,,0.00,,2013-03-14 21:32:00,
2013-03-14 16:43:00,36.0,33.0,30.05,SE,130,12.0,18.0,88,0.00,,,0.00,,2013-03-14 21:43:00,
2013-03-14 16:53:00,36.0,33.0,30.05,SE,130,6.0,17.0,88,0.00,,,0.00,,2013-03-14 21:53:00,
2013-03-14 17:03:00,36.0,32.0,30.06,SE,128,7.0,19.0,85,0.00,,,0.00,,2013-03-14 22:03:00,
2013-03-14 17:12:00,36.0,32.0,30.06,SE,128,7.0,19.0,85,0.00,,,0.00,,2013-03-14 22:12:00,
2013-03-14 17:23:00,36.0,32.0,30.06,SSE,153,11.0,15.0,84,0.00,,,0.00,,2013-03-14 22:23:00,
2013-03-14 17:33:00,37.0,33.0,30.06,SE,126,5.0,15.0,85,0.00,,,0.00,,2013-03-14 22:33:00,
2013-03-14 17:42:00,37.0,33.0,30.06,SE,126,5.0,15.0,85,0.00,,,0.00,,2013-03-14 22:42:00,
2013-03-14 17:52:00,37.0,33.0,30.06,SE,132,12.0,14.0,84,0.00,,,0.00,,2013-03-14 22:52:00,
2013-03-14 18:02:00,36.0,32.0,30.06,SE,126,12.0,14.0,85,0.00,,,0.00,,2013-03-14 23:02:00,
2013-03-14 18:12:00,36.0,32.0,30.06,SE,126,12.0,14.0,85,0.00,,,0.00,,2013-03-14 23:12:00,
2013-03-14 18:22:00,36.0,32.0,30.06,ESE,111,4.0,13.0,86,0.00,,,0.00,,2013-03-14 23:22:00,
2013-03-14 18:33:00,36.0,33.0,30.06,SSE,150,8.0,14.0,87,0.00,,,0.00,,2013-03-14 23:33:00,
2013-03-14 18:42:00,36.0,33.0,30.06,SSE,150,8.0,14.0,87,0.00,,,0.00,,2013-03-14 23:42:00,
2013-03-14 18:53:00,35.0,32.0,30.06,ESE,114,1.0,13.0,87,0.00,,,0.00,,2013-03-14 23:53:00,
2013-03-14 19:02:00,35.0,32.0,30.07,ESE,121,0.0,8.0,87,0.00,,,0.00,,2013-03-15 00:02:00,
2013-03-14 19:12:00,34.0,31.0,30.07,SE,138,0.0,4.0,88,0.00,,,0.00,,2013-03-15 00:12:00,
2013-03-14 19:22:00,34.0,31.0,30.07,SE,138,0.0,4.0,88,0.00,,,0.00,,2013-03-15 00:22:00,
2013-03-14 19:32:00,34.0,31.0,30.07,SE,144,0.0,6.0,89,0.00,,,0.00,,2013-03-15 00:32:00,
2013-03-14 19:42:00,34.0,31.0,30.07,SE,144,0.0,6.0,89,0.00,,,0.00,,2013-03-15 00:42:00,
2013-03-14 19:52:00,34.0,31.0,30.06,ESE,103,2.0,8.0,90,0.00,,,0.00,,2013-03-15 00:52:00,
2013-03-14 20:02:00,34.0,31.0,30.05,ESE,121,7.0,12.0,90,0.00,,,0.00,,2013-03-15 01:02:00,
2013-03-14 20:12:00,34.0,31.0,30.05,ESE,121,7.0,12.0,90,0.00,,,0.00,,2013-03-15 01:12:00,
2013-03-14 20:22:00,34.0,32.0,30.05,ESE,120,7.0,12.0,91,0.00,,,0.00,,2013-03-15 01:22:00,
2013-03-14 20:32:00,33.0,31.0,30.05,SE,135,1.0,8.0,91,0.00,,,0.00,,2013-03-15 01:32:00,
2013-03-14 20:42:00,33.0,31.0,30.05,SE,135,1.0,8.0,91,0.00,,,0.00,,2013-03-15 01:42:00,
2013-03-14 20:52:00,33.0,31.0,30.05,SE,133,0.0,7.0,92,0.00,,,0.00,,2013-03-15 01:52:00,
2013-03-14 21:02:00,33.0,31.0,30.04,SE,128,2.0,7.0,92,0.00,,,0.00,,2013-03-15 02:02:00,
2013-03-14 21:12:00,33.0,31.0,30.04,SE,128,2.0,7.0,92,0.00,,,0.00,,2013-03-15 02:12:00,
2013-03-14 21:22:00,33.0,31.0,30.03,SE,133,5.0,8.0,93,0.00,,,0.00,,2013-03-15 02:22:00,
2013-03-14 21:32:00,33.0,31.0,30.03,ESE,122,2.0,7.0,93,0.00,,,0.00,,2013-03-15 02:32:00,
2013-03-14 21:42:00,33.0,31.0,30.03,ESE,122,2.0,7.0,93,0.00,,,0.00,,2013-03-15 02:42:00,
2013-03-14 21:52:00,32.0,30.0,30.03,SE,126,4.0,6.0,94,0.00,,,0.00,,2013-03-15 02:52:00,
2013-03-14 22:02:00,32.0,30.0,30.02,SE,128,4.0,6.0,94,0.00,,,0.00,,2013-03-15 03:02:00,
2013-03-14 22:12:00,32.0,30.0,30.02,SE,128,4.0,6.0,94,0.00,,,0.00,,2013-03-15 03:12:00,
2013-03-14 22:22:00,32.0,30.0,30.01,SE,144,2.0,6.0,94,0.00,,,0.00,,2013-03-15 03:22:00,
2013-03-14 22:33:00,32.0,31.0,30.00,SE,146,6.0,8.0,95,0.00,,,0.00,,2013-03-15 03:33:00,
2013-03-14 22:43:00,32.0,31.0,30.00,SE,146,6.0,8.0,95,0.00,,,0.00,,2013-03-15 03:43:00,
2013-03-14 22:53:00,32.0,31.0,30.00,SSE,155,7.0,9.0,95,0.00,,,0.00,,2013-03-15 03:53:00,
2013-03-14 23:03:00,32.0,31.0,29.99,SSE,149,5.0,9.0,95,0.00,,,0.00,,2013-03-15 04:03:00,
2013-03-14 23:12:00,32.0,31.0,29.99,SSE,149,5.0,9.0,95,0.00,,,0.00,,2013-03-15 04:12:00,
2013-03-14 23:23:00,32.0,30.0,29.98,SSE,152,5.0,10.0,94,0.00,,,0.00,,2013-03-15 04:23:00,
2013-03-14 23:32:00,33.0,31.0,29.98,SE,142,9.0,10.0,94,0.00,,,0.00,,2013-03-15 04:32:00,
2013-03-14 23:42:00,33.0,31.0,29.98,SE,142,9.0,10.0,94,0.00,,,0.00,,2013-03-15 04:42:00,
2013-03-14 23:53:00,33.0,31.0,29.98,SSE,155,2.0,7.0,94,0.00,,,0.00,,2013-03-15 04:53:00,